Weather in Sekondi-Takoradi

Ghana     4°53′56″N   1°45′38″W
temp.,
°C
wind,
m/s
gust,
m/s
humid.,
%
clouds,
%
prec.,
mm/h
press.,
hPa
HPBL,
m
1 july, fri
fri100:00+23sw279373 0.7 1013244
03:00+23ssw3791100 0.9 1012312
06:00+22sw239395 1.8 101483
09:00+24ssw269097 0.6 1015357
12:00+26ssw457472 1.0 1014900
15:00+26s457272 0.2 1012836
18:00+24ssw368054 0.2 1013440
21:00+23sw268691 0.0 1015192
2 july, sat
sat200:00+23wsw248817 0.0 1015123
03:00+22wsw128935 0.0 101460
06:00+23s238697 0.0 101680
09:00+25ssw3473100 0.1 1017572
12:00+28s336145 0.1 10161221
15:00+27s436422 0.0 1013964
18:00+24s357893 0.0 1014264
21:00+23ssw24865 0.0 1016107
3 july, sun
sun300:00+22sw24910 0.0 1015120
03:00+22wsw24940 0.0 1014128
06:00+22w119332 0.1 101639
09:00+26ssw237296 0.2 1017637
12:00+27ssw336399 0.3 10161076
15:00+28s446086 0.0 10141209
18:00+25ssw37735 0.0 1014288
21:00+23sw26830 0.0 1016153
4 july, mon
mon400:00+22sw27850 0.0 1015188
03:00+22wsw288574 0.0 1013234
06:00+21wnw22865 0.0 101550
09:00+27wsw356430 0.0 1016831
12:00+29sw445886 0.1 10151497
15:00+28ssw446045 0.1 10131108
18:00+25sw47761 0.1 1014495
21:00+23sw378813 0.0 1016309
5 july, tue
tue500:00+23wsw269214 0.0 1015258
03:00+22w269345 0.1 1014228
06:00+23w2691100 0.2 1015221
09:00+24w248598 0.0 1016356
12:00+28sw236693 0.3 1015969
15:00+28ssw346861 0.4 1013954
18:00+25ssw368472 1.0 1014289
21:00+23sw249234 0.0 1015132